Regional Weather Roundup
Issued by NWS Portland, ME

Home | Current Version | Previous Version | Text Only | Print | Product List | Glossary On
Versions: 1 2 3 4 5 6 7 8 9 10 11 12 13 14 15 16 17 18 19 20 21 22 23 24 25 26 27 28 29 30 31 32 33 34 35 36 37 38 39 40 41 42 43 44 45 46 47 48 49 50
000
ASUS41 KGYX 182110
RWRGYX
WEATHER ROUNDUP FOR MAINE AND NEW HAMPSHIRE
NATIONAL WEATHER SERVICE GRAY ME
400 PM EST THU DEC 18 2014

MEZ002-005-006-010-012-015-018-020-021-024-026-027-029-182200-
MAINE

CITY           SKY/WX    TMP DP  RH WIND       PRES   REMARKS
PORTLAND       CLOUDY    41  29  62 NW8       29.73R
SANFORD        MOCLDY    37  25  60 W15G22    29.74R
BAR HARBOR     CLOUDY    32  30  93 NW10G18   29.63R
WISCASSET      CLOUDY    37  28  70 VRB5      29.72R
ROCKLAND       CLOUDY    36  34  93 W10       29.67R
FRYEBURG       CLOUDY    37  25  61 W8        29.71R
LEWISTONAUBURN CLOUDY    37  27  65 NW9       29.71R
AUGUSTA        CLOUDY    35  26  69 NW7       29.69R
WATERVILLE     MOCLDY    34  25  69 N16       29.67R
BANGOR         FLURRIES  31  26  82 NW14G21   29.66R
GREENVILLE       N/A     25  21  85 NW20G36   29.59R WCI  11
MILLINOCKET    NOT AVBL
HOULTON        CLOUDY    29  24  82 NW13G21   29.54R WCI  19
PRESQUE ISLE   CLOUDY    28  21  74 NW17      29.56R WCI  16
FRENCHVILLE    LGT SNOW  24  21  88 N23G31    29.57R FOG     WCI   9
CARIBOU        FLURRIES  28  23  81 NW18G25   29.55R WCI  15
$$

NHZ002-005-008-009-011-012-014-182200-
NEW HAMPSHIRE

CITY           SKY/WX    TMP DP  RH WIND       PRES   REMARKS
PORTSMOUTH     MOCLDY    40  28  62 W18G24    29.75R
ROCHESTER      CLOUDY    39  27  62 VRB6G18   29.75R
NASHUA         CLOUDY    40  28  62 W9        29.81R
MANCHESTER     CLOUDY    40  27  59 W7        29.78R
CONCORD        CLOUDY    37  28  70 W10       29.78R
LACONIA        CLOUDY    36  25  64 W14G24    29.74S
PLYMOUTH       CLOUDY    34  31  87 NW12G18   29.77R
BERLIN         CLOUDY    30  23  75 W10       29.73R
WHITEFIELD     CLOUDY    30  25  81 W13       29.78R WCI  20
JAFFREY        MOCLDY    35  26  69 W12G22    29.79R
KEENE          CLOUDY    37  27  65 W9G17     29.82R
LEBANON        CLOUDY    36  27  69 N9        29.81R
MT WASHINGTON  BLWGSNOW  10  10 100 NW74        N/A  VSB 0   WCI -20
$$

VTZ005-007-008-182200-
VERMONT

CITY           SKY/WX    TMP DP  RH WIND       PRES   REMARKS
ST JOHNSBURY     N/A     32  25  75 MISG      29.79R
MONTPELIER     MIX PCPN  29  24  82 W21G31    29.84R WCI  16
BURLINGTON     CLOUDY    33  25  72 NW8       29.88R
$$

MAZ007-012-024-CTZ003-RIZ002-NYZ038-NYZ072-182200-
SOUTHERN NEW ENGLAND AND NY

CITY           SKY/WX    TMP DP  RH WIND       PRES   REMARKS
BOSTON         MOCLDY    42  29  59 W10G20    29.80R
WORCESTER      CLOUDY    35  27  72 W13       29.79R
NANTUCKET      CLEAR     42  29  59 W14       29.81R
PROVIDENCE     MOCLDY    41  27  57 NW12      29.84R
HARTFORD       MOCLDY    38  26  62 NW10      29.87R
ALBANY         CLOUDY    36  25  64 W13G23    29.93R
NEW YORK CITY  MOCLDY    41  25  53 NW21G28   29.96R
$$

ANZ081-ANZ082-ANZ150-NHZ014-MEZ023>029-182200-
COASTAL MARINE OBSERVATIONS

STATION/POSITION TIME  TEMP    WIND        PRES    WAVE
                       AIR SEA DIR/SP/G            HT/PER
                 (UTC) (F)     (DEG/KT/KT) (MB)    (FT/S)
MOUNT DESERT ROC 2100   37                 1002.7R
MATINICUS ROCK   2000          300/ 29/ 31 1003.5R
PORTLAND WX BUOY 2050   41 44  330/ 14/ 17 1006.1R   2/ 9
WELLS            2000   42 40  310/  9/ 19 1005.6R
ISLE OF SHOALS   2000   41     300/ 23/ 25 1006.0R
JEFFREYS LEDGE   2021      49                N/A     7/ 5
CASHES LEDGE BUO 2050   42 49  320/ 27/ 33 1004.5R   6/ 6
$$

.............KEY..............
   WCI - WIND CHILL
   TC  - TEMPERATURE IN CELSIUS
   VSB - VISIBILITY IN MILES
   HX  - HEAT INDEX
   FAIR- INDICATES FEW OR NO CLOUDS BELOW 12,000 FT, WITH NO
         SIGNIFICANT WEATHER AND/OR OBSTRUCTIONS TO VISIBILITY.




USA.gov is the U.S. government's official web portal to all federal, state and local government web resources and services.